IRIDIUM 153

Last updated on Tue Sep 22 2026 00:03:21 GMT+0000 (Coordinated Universal Time)

1 43078U 17083J 26263.94665774 .00000019 00000+0 -32181-6 0 9999 2 43078 86.3919 250.4145 0002304 86.3624 273.7835 14.34217409459007
UTC large
Height (km)
Speed (km/s)
/
Latitude / Longitude
Inclination (degrees)
Orbital Period (minutes)
Azimuth
Elevation
Range (km)
Doppler Factor

Next 0 passes for location: London (51.5072 / 0.1276)

No passes found over London.
IRIDIUM 153